TimePDT,TemperatureF,Dew PointF,Humidity,Sea Level PressureIn,VisibilityMPH,Wind Direction,Wind SpeedMPH,Gust SpeedMPH,PrecipitationIn,Events,Conditions,WindDirDegrees,DateUTC
12:53 AM,54.0,41.0,62,30.09,10.0,SSW,11.5,-,N/A,,Scattered Clouds,210,2013-04-03 07:53:00
1:53 AM,53.1,41.0,64,30.09,10.0,SSW,9.2,-,N/A,,Overcast,210,2013-04-03 08:53:00
2:53 AM,53.1,41.0,64,30.09,10.0,SSW,9.2,-,N/A,,Overcast,210,2013-04-03 09:53:00
3:53 AM,53.1,42.1,66,30.09,10.0,WSW,10.4,-,N/A,,Overcast,240,2013-04-03 10:53:00
4:53 AM,48.9,41.0,74,30.09,10.0,South,6.9,-,N/A,,Clear,190,2013-04-03 11:53:00
5:53 AM,45.0,39.9,82,30.09,10.0,South,6.9,-,N/A,,Clear,170,2013-04-03 12:53:00
6:53 AM,45.0,39.9,82,30.11,10.0,South,6.9,-,N/A,,Clear,170,2013-04-03 13:53:00
7:53 AM,48.0,41.0,77,30.12,10.0,SSE,8.1,-,N/A,,Clear,150,2013-04-03 14:53:00
8:53 AM,53.1,41.0,64,30.11,10.0,South,5.8,-,N/A,,Clear,180,2013-04-03 15:53:00
9:53 AM,59.0,42.1,53,30.09,10.0,WSW,5.8,-,N/A,,Clear,240,2013-04-03 16:53:00
10:53 AM,62.1,39.9,44,30.08,10.0,NW,6.9,-,N/A,,Clear,320,2013-04-03 17:53:00
11:53 AM,63.0,37.9,40,30.07,10.0,Variable,5.8,-,N/A,,Clear,0,2013-04-03 18:53:00
12:53 PM,64.9,39.9,40,30.04,10.0,WSW,8.1,-,N/A,,Clear,250,2013-04-03 19:53:00
1:53 PM,68.0,41.0,37,30.04,10.0,Variable,6.9,-,N/A,,Clear,0,2013-04-03 20:53:00
2:53 PM,66.9,39.9,37,30.03,10.0,Variable,5.8,-,N/A,,Clear,0,2013-04-03 21:53:00
3:53 PM,66.9,41.0,39,30.01,10.0,NNW,6.9,-,N/A,,Clear,340,2013-04-03 22:53:00
4:53 PM,66.0,39.9,38,30.00,10.0,North,4.6,-,N/A,,Clear,10,2013-04-03 23:53:00
5:53 PM,64.9,39.9,40,29.99,10.0,North,4.6,-,N/A,,Clear,10,2013-04-04 00:53:00
6:53 PM,63.0,43.0,48,29.99,10.0,NNE,4.6,-,N/A,,Clear,20,2013-04-04 01:53:00
7:53 PM,59.0,42.1,53,29.97,10.0,NE,11.5,-,N/A,,Clear,50,2013-04-04 02:53:00
8:53 PM,55.9,39.0,53,29.96,10.0,ENE,12.7,-,N/A,,Clear,60,2013-04-04 03:53:00
9:53 PM,54.0,39.9,59,29.95,10.0,ENE,9.2,-,N/A,,Clear,70,2013-04-04 04:53:00
10:53 PM,52.0,41.0,66,29.93,10.0,East,9.2,-,N/A,,Clear,80,2013-04-04 05:53:00
11:53 PM,51.1,41.0,68,29.92,10.0,ENE,11.5,-,N/A,,Clear,70,2013-04-04 06:53:00